Regional Weather Roundup
Issued by NWS Albany, NY

Current Version | Previous Version | Text Only | Print | Product List | Glossary On
Versions: 1 2 3 4 5 6 7 8 9 10 11 12 13 14 15 16 17 18 19 20 21 22 23 24 25 26 27 28 29 30 31 32 33 34 35 36 37 38 39 40 41 42 43 44 45 46 47 48 49 50
000
ASUS41 KALY 172310
RWRALY

NEW YORK STATE HOURLY WEATHER ROUNDUP
NATIONAL WEATHER SERVICE ALBANY NY
600 PM EST FRI NOV 17 2017

NOTE: "FAIR" INDICATES FEW OR NO CLOUDS BELOW 12,000 FEET WITH NO
SIGNIFICANT WEATHER AND/OR NO OBSTRUCTIONS TO VISIBILITY.

NYZ032-033-038>043-046>054-057>066-NYZ062>081-082-084-180000-
EAST


CITY           SKY/WX    TMP DP  RH WIND       PRES   REMARKS
ALBANY         PTCLDY    33  17  51 W12       30.10S WCI  24
GLENS FALLS    PTCLDY    31  15  52 N7        30.07R WCI  24
POUGHKEEPSIE   CLEAR     35  18  49 CALM      30.07S
NEWBURGH       CLEAR     37  19  48 W12       30.08S WCI  30
MONTGOMERY     CLEAR     38  16  40 W8        30.07S WCI  32
WHITE PLAINS   CLEAR     41  18  39 NW20      30.03F
ISLIP          PTCLDY    42  20  41 W8        30.05R
NEW YORK CITY  PTCLDY    46  20  35 NW18      30.07R
CENTRAL PARK   CLEAR     44  15  31 NW8       30.10R
$$

NYZ005>009-017-018-044>046-055-056-180000-
CENTRAL


CITY           SKY/WX    TMP DP  RH WIND       PRES   REMARKS
FULTON         CLOUDY    30  24  78 CALM      30.15S
SYRACUSE       PTCLDY    30  21  69 CALM      30.14F
ROME           PTCLDY    27  19  72 N5        30.16S WCI  22
ELMIRA         CLEAR     30  22  72 CALM      30.12S
BINGHAMTON     CLEAR     28  16  60 N3        30.07F
MONTICELLO     CLEAR     32  18  56 NW12      30.06F WCI  23
$$

NYZ026>034-041>043-087-180000-
NORTH


CITY           SKY/WX    TMP DP  RH WIND       PRES   REMARKS
WATERTOWN      CLEAR     29  21  72 CALM      30.14S
FORT DRUM      NOT AVBL
OGDENSBURG     FAIR      25  18  76 CALM      30.13F
MASSENA        CLEAR     27  15  61 SW3       30.15R
SARANAC LAKE   CLEAR     19  15  84 VRB3      30.05R
PLATTSBURGH    CLEAR     29  13  51 W5        30.11R WCI  24
$$

NYZ001>004-010>016-019>021-085-180000-
WEST


CITY           SKY/WX    TMP DP  RH WIND       PRES   REMARKS
NIAGARA FALLS  CLOUDY    36  26  67 E3        30.07F
BUFFALO        CLOUDY    35  26  69 E3        30.08F
DUNKIRK        CLOUDY    35  28  75 E5        30.06F WCI  31
JAMESTOWN      CLOUDY    34  26  72 S7        30.03  WCI  28
WELLSVILLE     CLOUDY    34  22  61 S3        30.06F
ROCHESTER      CLOUDY    36  24  62 S3        30.11F
PENN YAN       CLOUDY    33  23  66 CALM      30.12S
$$

             KEY
       WCI = WIND CHILL INDEX
       VSB = VISIBILITY
       HX  = HEAT INDEX
$$



USA.gov is the U.S. government's official web portal to all federal, state and local government web resources and services.